TimeEST,TemperatureF,Dew PointF,Humidity,Sea Level PressureIn,VisibilityMPH,Wind Direction,Wind SpeedMPH,Gust SpeedMPH,PrecipitationIn,Events,Conditions,WindDirDegrees,DateUTC
12:54 AM,37.4,32.0,81,30.21,9.0,East,9.2,-,N/A,,Clear,90,2011-11-22 05:54:00
1:54 AM,37.0,32.0,82,30.23,9.0,East,6.9,-,N/A,,Clear,90,2011-11-22 06:54:00
2:54 AM,37.0,32.0,82,30.20,8.0,ENE,9.2,-,N/A,,Clear,70,2011-11-22 07:54:00
3:54 AM,37.0,32.0,82,30.18,8.0,East,10.4,-,N/A,,Clear,80,2011-11-22 08:54:00
4:54 AM,37.0,32.0,82,30.15,8.0,East,9.2,-,N/A,,Clear,80,2011-11-22 09:54:00
5:54 AM,37.0,32.0,82,30.12,8.0,East,11.5,19.6,N/A,,Clear,80,2011-11-22 10:54:00
6:37 AM,37.4,33.8,87,30.10,8.0,East,10.4,-,N/A,,Mostly Cloudy,80,2011-11-22 11:37:00
6:54 AM,37.9,33.1,83,30.11,8.0,East,10.4,17.3,N/A,,Overcast,80,2011-11-22 11:54:00
7:54 AM,39.0,34.0,82,30.09,8.0,East,10.4,-,N/A,,Overcast,80,2011-11-22 12:54:00
8:54 AM,41.0,35.1,79,30.06,7.0,East,9.2,-,N/A,,Overcast,80,2011-11-22 13:54:00
9:54 AM,42.8,35.6,76,30.05,8.0,East,10.4,19.6,N/A,Rain,Light Rain,80,2011-11-22 14:54:00
10:54 AM,41.0,37.0,86,30.04,7.0,ENE,10.4,-,0.02,Rain,Light Rain,70,2011-11-22 15:54:00
11:14 AM,41.0,37.4,87,30.01,5.0,ENE,12.7,18.4,0.01,Rain,Light Rain,70,2011-11-22 16:14:00
11:36 AM,42.8,37.4,81,30.00,2.5,East,10.4,-,0.03,Rain,Rain,80,2011-11-22 16:36:00
11:54 AM,42.1,37.9,85,30.00,2.5,ENE,11.5,19.6,0.08,Rain,Rain,70,2011-11-22 16:54:00
12:26 PM,41.0,37.4,87,29.93,1.8,ENE,16.1,27.6,0.16,Rain,Heavy Rain,70,2011-11-22 17:26:00
12:40 PM,41.0,37.4,87,29.92,2.0,ENE,15.0,21.9,0.22,Rain,Rain,70,2011-11-22 17:40:00
12:54 PM,41.0,37.4,87,29.90,1.8,ENE,13.8,21.9,N/A,Rain,Heavy Rain,70,2011-11-22 17:54:00
1:35 PM,41.0,37.4,87,29.86,2.0,ENE,16.1,24.2,0.20,Rain,Rain,60,2011-11-22 18:35:00
1:54 PM,42.1,37.9,85,29.87,2.0,ENE,16.1,21.9,0.25,Rain,Rain,70,2011-11-22 18:54:00
2:09 PM,42.8,37.4,81,29.83,4.0,ENE,15.0,23.0,0.04,Rain,Rain,70,2011-11-22 19:09:00
2:54 PM,42.1,39.0,89,29.83,5.0,East,11.5,20.7,0.08,Rain,Light Rain,80,2011-11-22 19:54:00
3:08 PM,42.8,39.2,87,29.81,5.0,East,9.2,-,0.02,Rain,Rain,80,2011-11-22 20:08:00
3:54 PM,42.1,39.0,89,29.82,3.0,ENE,9.2,-,0.12,Rain,Rain,60,2011-11-22 20:54:00
4:13 PM,42.8,39.2,87,29.79,3.0,ENE,8.1,18.4,0.07,Rain,Rain,60,2011-11-22 21:13:00
4:39 PM,42.8,39.2,87,29.78,6.0,NNE,15.0,18.4,0.11,Rain,Light Rain,20,2011-11-22 21:39:00
4:54 PM,41.0,37.9,89,29.80,5.0,NNE,15.0,-,0.13,Rain,Light Rain,20,2011-11-22 21:54:00
5:13 PM,41.0,37.4,87,29.78,6.0,NNE,11.5,-,0.01,Rain,Light Rain,30,2011-11-22 22:13:00
5:54 PM,41.0,37.9,89,29.81,7.0,NNE,11.5,-,0.03,Rain,Light Rain,30,2011-11-22 22:54:00
6:23 PM,39.2,37.4,93,29.79,7.0,NNE,13.8,-,0.01,Rain,Light Rain,30,2011-11-22 23:23:00
6:49 PM,39.2,37.4,93,29.81,8.0,NNE,13.8,19.6,0.02,Rain,Light Rain,20,2011-11-22 23:49:00
6:54 PM,39.9,37.0,89,29.83,7.0,North,13.8,-,0.02,Rain,Light Rain,10,2011-11-22 23:54:00
7:54 PM,39.0,36.0,89,29.86,7.0,North,12.7,-,0.03,Rain,Light Rain,350,2011-11-23 00:54:00
8:54 PM,37.0,34.0,89,29.88,6.0,North,15.0,-,0.02,Rain,Light Rain,350,2011-11-23 01:54:00
9:54 PM,37.4,35.6,93,29.89,5.0,NNW,11.5,-,N/A,Rain,Light Rain,340,2011-11-23 02:54:00
10:38 PM,37.4,35.6,93,29.91,5.0,NW,9.2,-,0.03,Rain,Light Rain,320,2011-11-23 03:38:00
10:54 PM,37.0,35.1,93,29.93,6.0,NW,9.2,-,0.03,Rain,Light Rain,320,2011-11-23 03:54:00
11:13 PM,37.4,35.6,93,29.92,6.0,NW,11.5,-,0.00,Rain,Light Rain,320,2011-11-23 04:13:00
11:51 PM,37.4,35.6,93,29.94,7.0,NNW,13.8,-,0.00,,Overcast,340,2011-11-23 04:51:00
11:54 PM,37.9,35.1,89,29.96,7.0,NNW,15.0,-,0.00,,Overcast,340,2011-11-23 04:54:00
11:58 PM,37.4,35.6,93,29.94,7.0,NNW,11.5,-,N/A,,Overcast,340,2011-11-23 04:58:00